SCP
0 0 0 0 0 0 0 0 0 0 0 0 0 0 0 0 0 0 0 0 0 0 0 0 0 0 0 0 0 0 0 0 0 0 0 0 0 0 0 0 0 0 0
0 0 0 0 0 0 0 0 0 0 0 0 0 0 0 0 0 0 0 0 0 0 0 0 0 0 0 0 0 0 0 0 0 0 0 0 0 0 0 0 0 0 0
0 0 0 0 0 0 0 0 0 0 0 0 0 0 0 0 0 0 0 0 0 0 0 0 0 0 0 0 0 0 0 0 0 0 0 0 0 0 0 0 0 0 0
0 0 0 1 1 0 0 0 0 0 0 0 0 0 0 0 0 0 0 0 0 0 0 0 0 0 0 0 0 0 0 0 0 0 0 0 0 0 0 0 0 0 0
0 0 0 1 1 1 0 0 0 0 0 0 0 0 0 0 0 0 0 0 0 0 0 0 0 0 0 0 0 0 0 0 0 0 0 0 0 0 0 0 0 0 0
0 0 1 1 1 1 1 0 0 0 0 0 0 0 0 0 0 0 0 0 0 0 0 0 0 0 0 0 0 0 0 0 0 0 0 0 0 0 0 0 0 0 0
0 1 1 1 1 1 1 0 0 0 0 0 0 0 0 0 0 0 0 0 0 0 0 0 0 0 0 0 0 0 0 0 0 0 0 0 0 0 0 0 0 0 0
1 1 1 1 1 1 1 0 0 0 0 0 0 0 0 0 0 0 0 0 0 0 0 0 0 0 0 0 0 0 0 0 0 0 0 0 0 0 0 0 0 0 0
1 1 1 1 1 1 1 1 0 0 0 0 0 0 0 0 0 0 0 0 0 0 0 0 0 0 0 0 0 0 0 0 0 0 0 0 0 0 0 0 0 0 0
1 1 1 1 1 1 1 0 0 0 0 0 0 0 0 0 0 0 0 0 0 0 0 0 0 0 0 0 0 0 0 0 0 0 0 0 0 0 0 0 0 0 0
1 1 1 1 1 1 1 0 0 0 0 0 0 0 0 0 0 0 0 0 0 0 0 0 0 0 0 0 0 0 0 0 0 0 0 0 0 0 0 0 0 0 0
1 1 1 1 1 1 1 0 0 0 0 0 0 0 0 0 0 0 0 0 0 0 0 0 0 0 0 0 0 0 0 0 0 0 0 0 0 0 0 0 0 0 0
1 1 1 1 1 1 1 0 0 0 0 0 0 0 0 0 0 0 0 0 0 0 0 0 0 0 0 0 0 0 0 0 0 0 0 0 0 0 0 0 0 0 0
1 1 1 1 1 1 1 0 0 0 0 0 0 0 0 0 0 0 0 0 0 0 0 0 0 0 0 0 0 0 0 0 0 0 0 0 0 0 0 0 0 0 0
1 1 1 1 1 1 0 0 0 0 0 0 0 0 0 0 0 0 0 0 0 0 0 0 0 0 0 0 0 0 0 0 0 0 0 0 0 0 0 0 0 0 0
1 1 1 1 0 0 0 0 0 0 0 0 0 0 0 0 0 0 0 0 0 0 0 0 0 0 0 0 0 0 0 0 0 0 0 0 0 0 0 0 0 0 0
1 1 1 0 0 0 0 0 0 0 0 0 0 0 0 0 0 0 0 0 0 0 0 0 0 0 0 0 0 0 0 0 0 0 0 0 0 0 0 0 0 0 0
0 0 0 0 0 0 0 0 0 0 0 0 0 0 0 0 0 0 0 0 0 0 0 0 0 0 0 0 0 0 0 0 0 0 0 0 0 0 0 0 0 0 0
0 0 0 0 0 0 0 0 0 0 0 0 0 0 0 0 0 0 0 0 0 0 0 0 0 0 0 0 0 0 0 0 0 0 0 0 0 0 0 0 0 0 0
0 0 0 0 0 0 0 0 0 0 0 0 0 0 0 0 0 0 0 0 0 0 0 0 0 0 0 0 0 0 0 0 0 0 0 0 0 0 0 0 0 0 0
0 0 0 0 0 0 0 0 0 0 0 0 0 0 0 0 0 0 0 0 0 0 0 0 0 0 0 0 0 0 0 0 0 0 0 0 0 0 0 0 0 0 0
0 0 0 0 0 0 0 0 0 0 0 0 0 0 0 0 0 0 0 0 0 0 0 0 0 0 0 0 0 0 0 0 0 0 0 0 0 0 0 0 0 0 0
0 0 0 0 0 0 0 0 -0 0 0 0 0 0 0 0 0 0 0 0 0 0 0 0 0 0 0 0 0 0 0 0 0 0 0 0 0 0 0 0 0 0 0
0 0 0 0 0 0 0 0 0 0 0 0 0 0 0 0 0 0 0 0 0 0 0 0 0 0 0 0 0 0 0 0 0 0 0 0 0 0 0 0 0 0 0
0 0 0 0 0 0 0 0 0 0 0 0 0 0 0 0 0 0 0 0 0 0 0 0 0 0 0 0 0 0 0 0 0 0 0 0 0 0 0 0 0 0 0
0 0 0 0 0 0 0 0 0 0 0 0 0 0 0 0 0 0 0 0 0 0 0 0 0 0 0 0 0 0 0 0 0 0 0 0 0 0 0 0 0 0 0
Wind_Speed
7 9 15 14 14 14 13 13 13 12 12 12 12 13 12 13 13 12 12 12 12 12 12 13 14 15 15 16 16 16 16 16 16 16 15 14 15 16 16 16 14 10 17
10 11 15 14 14 14 13 13 12 12 12 12 12 12 12 12 12 12 12 11 11 12 12 13 14 14 14 14 15 15 15 15 15 14 13 11 13 15 16 15 14 10 16
13 11 13 14 14 14 13 13 12 12 11 11 11 11 12 12 11 11 11 11 11 11 12 13 13 13 13 13 13 14 14 14 13 12 10 6 9 15 15 15 15 16 16
13 11 12 14 14 14 13 13 12 12 11 11 11 11 11 11 11 11 11 10 11 11 11 12 12 12 12 12 12 12 13 13 12 10 6 5 6 13 15 15 15 15 15
11 9 11 14 14 14 14 13 13 12 11 11 11 11 11 11 11 11 11 10 10 11 11 11 12 11 11 11 11 12 12 12 11 8 5 5 5 12 14 14 14 14 14
10 9 11 14 14 14 13 13 13 12 11 11 10 10 11 10 11 11 10 10 10 10 11 11 11 11 10 10 11 12 12 11 9 5 5 4 4 12 14 14 13 13 13
10 8 10 14 14 14 13 13 12 11 11 11 11 10 10 10 11 10 10 10 10 10 11 11 10 10 10 10 11 11 12 10 7 5 4 4 6 12 13 13 13 13 13
11 9 9 13 12 13 12 12 11 11 11 11 10 10 10 10 10 10 10 9 10 10 10 10 10 9 9 10 10 11 11 9 7 6 4 4 9 12 13 13 12 12 13
10 9 8 8 9 11 11 11 11 10 10 10 10 10 9 9 9 9 9 9 9 9 9 9 9 9 10 10 11 11 11 9 5 3 5 4 9 12 12 12 12 12 12
8 8 7 7 6 6 7 9 10 9 9 9 9 9 9 8 8 8 7 8 8 8 8 8 9 9 10 10 11 10 10 8 5 4 3 5 9 11 11 11 11 11 11
7 6 7 7 6 6 6 8 8 8 8 8 8 9 8 5 4 5 6 7 7 7 8 8 8 9 8 8 10 9 7 3 4 3 3 7 9 10 10 10 10 10 10
9 7 7 7 7 6 6 5 4 4 5 4 4 5 4 3 3 4 6 6 7 6 6 7 7 7 6 4 5 6 3 4 3 2 3 8 10 10 10 10 10 10 10
10 8 7 7 7 6 5 4 3 3 3 3 5 5 4 3 3 3 2 3 3 4 3 4 4 3 3 3 3 3 4 3 2 2 3 7 9 10 10 10 9 9 9
9 8 7 7 7 7 6 4 4 3 3 3 4 5 4 3 3 3 2 2 2 2 2 2 2 3 4 4 4 4 4 3 2 2 3 7 8 9 9 9 9 9 9
9 8 8 7 8 7 6 5 5 4 4 4 4 4 5 4 4 3 3 2 2 2 3 3 3 3 3 4 4 5 4 4 3 3 2 6 6 7 8 8 8 8 8
9 8 8 8 8 7 6 5 5 4 4 4 4 5 5 4 4 4 3 3 3 3 3 3 4 4 3 3 4 4 4 4 4 3 3 3 5 6 7 7 7 6 7
9 9 8 9 8 8 7 7 5 5 5 4 4 5 6 5 5 5 4 3 3 3 3 3 4 3 3 3 4 4 3 3 4 4 3 2 2 4 6 6 6 6 6
8 8 8 8 8 8 7 6 5 5 5 4 4 5 6 6 6 5 4 3 3 3 3 3 3 4 3 3 3 3 3 3 3 3 3 3 2 2 3 5 5 5 5
8 9 8 7 8 7 7 6 5 5 5 4 4 4 5 6 6 5 4 4 4 4 3 3 3 3 4 4 3 3 3 2 2 3 3 3 2 2 2 3 4 4 4
7 8 8 7 7 6 5 4 4 4 4 4 4 5 6 5 6 6 4 5 5 4 3 3 4 3 3 4 4 4 3 2 2 2 2 2 2 2 2 2 2 2 4
6 7 7 7 7 6 5 5 5 5 4 4 4 5 6 6 6 6 5 5 5 4 5 5 4 5 3 4 4 3 3 3 2 1 1 2 2 2 2 2 1 2 2
7 7 7 7 7 7 5 5 4 4 4 4 4 5 6 7 7 6 6 5 5 5 5 5 5 3 2 3 4 3 1 1 2 2 1 1 2 1 1 1 2 2 2
7 7 7 7 7 7 6 4 4 3 2 3 3 4 5 6 6 6 7 6 6 6 6 6 6 5 4 2 2 4 4 3 1 1 1 1 1 1 1 1 2 2 2
6 5 6 7 7 6 7 7 8 6 5 4 4 4 5 6 6 6 6 6 6 5 6 6 5 4 6 4 2 1 2 4 3 1 1 1 0 1 1 1 1 1 1
4 4 5 6 6 6 6 7 7 5 3 3 3 5 5 4 5 6 6 6 6 5 6 6 5 5 4 4 3 2 2 2 2 3 2 1 1 1 0 1 1 1 1
3 3 3 5 5 6 6 6 7 7 5 5 5 5 4 3 3 5 5 5 5 5 6 6 6 6 5 4 3 3 4 3 3 3 3 2 1 1 0 0 1 1 1
Wind_Direction
160 163 150 144 139 134 128 123 121 118 115 112 110 109 110 109 109 108 106 106 106 106 104 104 100 98 97 96 94 92 89 87 86 84 82 84 89 89 88 85 83 79 84
152 157 149 145 141 137 131 127 123 121 119 117 113 112 114 113 111 111 111 111 110 108 105 105 103 101 99 99 98 97 94 92 90 86 80 80 87 90 90 88 88 87 86
146 151 148 146 143 138 134 131 127 126 125 122 117 115 116 117 115 115 112 112 112 110 109 107 105 103 101 100 100 100 98 97 93 87 82 79 87 91 91 90 91 89 87
145 147 148 146 144 141 139 137 134 131 130 127 122 119 118 117 117 115 113 112 110 109 110 109 107 104 103 101 101 102 101 99 93 89 80 78 87 94 93 92 92 90 88
141 144 148 147 145 143 142 140 138 136 134 132 127 124 122 120 119 117 115 112 110 110 110 110 110 107 104 101 101 104 102 98 89 84 81 81 85 96 94 93 93 93 91
139 142 148 147 146 144 143 142 140 140 139 137 133 130 126 125 122 118 114 112 112 114 113 112 112 108 104 104 105 106 104 96 85 81 82 84 92 100 97 95 95 95 94
140 144 149 148 148 145 144 143 142 141 141 138 136 133 131 129 126 120 115 113 113 114 115 114 114 112 107 107 109 107 104 97 90 84 85 87 100 104 102 99 96 95 94
142 144 148 147 147 147 146 144 144 143 141 141 140 138 135 131 128 124 119 117 118 117 117 116 115 114 113 114 113 109 102 98 96 92 88 93 107 107 104 101 98 95 93
141 143 145 148 148 146 146 146 144 143 141 141 140 137 130 127 127 126 124 122 121 120 119 120 117 116 115 115 114 108 100 92 90 90 98 98 108 110 107 104 100 97 93
138 143 145 145 143 145 146 145 142 140 139 139 135 128 123 121 122 123 124 122 121 123 124 125 124 117 112 113 114 109 100 90 86 83 90 106 110 111 108 106 104 102 98
146 149 150 148 144 144 147 147 143 140 139 135 131 125 120 117 117 119 121 122 122 123 125 127 123 115 108 109 112 108 99 91 92 87 96 111 115 112 110 108 106 105 102
163 163 158 154 152 149 150 142 141 140 138 133 134 132 124 123 125 124 124 124 121 118 120 118 113 109 100 102 105 106 97 94 92 96 105 115 117 114 111 108 108 107 104
168 166 164 161 157 154 147 148 145 140 139 138 140 139 132 123 124 119 121 117 112 109 102 104 100 99 101 106 106 103 102 96 93 95 106 115 116 115 112 110 109 110 108
166 171 167 164 161 160 154 154 153 150 150 153 156 150 142 138 137 139 134 132 123 119 112 104 110 110 108 112 115 111 108 104 95 94 106 113 116 118 116 115 110 108 108
170 173 171 166 167 165 158 162 161 163 162 160 157 158 153 149 151 149 145 142 137 130 128 126 121 118 114 113 113 114 112 108 104 95 99 110 113 117 119 118 117 114 110
174 175 173 172 172 166 166 165 164 167 163 158 160 160 158 156 156 154 147 146 144 140 139 133 129 125 117 114 113 116 117 116 110 103 96 100 102 109 118 122 116 117 115
176 172 173 174 171 167 168 169 165 169 164 164 165 162 162 159 157 154 150 152 151 141 131 117 112 111 111 110 110 115 117 114 111 107 104 94 90 93 107 117 117 114 114
171 170 175 173 170 170 170 169 165 167 165 168 165 162 164 160 157 152 150 155 150 139 131 127 123 118 113 110 109 109 113 114 110 112 107 101 93 85 91 97 106 106 112
175 171 173 171 170 172 170 168 166 164 167 168 163 163 167 163 159 154 153 155 148 140 135 141 133 130 125 113 106 91 87 99 110 112 113 111 105 99 91 87 85 84 94
173 170 170 169 168 165 161 158 158 160 165 162 164 166 166 164 160 154 151 156 151 145 142 139 137 125 127 124 105 79 59 57 75 99 117 111 106 104 100 92 83 77 79
162 164 168 166 168 162 163 168 170 175 170 167 170 168 166 165 163 157 156 159 157 156 159 150 139 133 123 120 101 78 40 39 56 66 93 104 100 98 97 97 95 90 74
169 170 171 171 168 171 173 172 171 166 169 171 170 169 170 167 167 165 164 167 163 156 157 156 146 139 148 148 131 124 104 7 4 34 50 107 109 93 96 108 111 107 100
173 173 174 173 170 170 164 152 140 129 132 157 171 172 174 169 169 170 173 167 167 166 172 172 165 156 165 177 155 145 152 187 237 348 20 53 98 102 98 115 119 121 117
183 174 169 169 168 168 165 165 164 167 173 184 179 173 173 172 171 173 175 171 170 171 174 180 175 167 163 171 170 137 143 144 151 161 340 350 36 118 141 119 115 121 111
160 160 164 161 163 164 168 171 171 170 170 157 161 167 173 176 176 173 174 174 173 174 177 178 174 169 169 170 166 151 123 105 123 144 182 236 320 289 218 169 132 116 93
125 133 141 155 166 166 167 170 172 167 160 159 166 172 175 175 178 176 171 176 178 176 180 183 179 177 178 170 167 161 160 158 166 155 164 187 203 272 292 175 146 137 107